IK5NLA Vaiano IT current weather conditions

sailwx.info

Wind from 069 at 0 knots

Air temperature 9.4° C
Dewpoint 5.0° C

Last reported at 2016-Dec-03 10:46 UTC.
Time now 2016-Dec-03 11:33 UTC

Location: N 43°58' E 011°06'.
View on Google Maps.

See reports from other nearby stations

  
Tides and Currents Weather Stations Pressure Air Temp Water Temp Dewpoint Dewpoint Depression Visibility Wind Speed Wind Dir Waves Ship Positions
date/time (UTC)wind fromknots sea level pressurealtimeterstation pressurevisibilityair tempwater tempwave heightnotes
2016-Dec-03 10:46 069 0 9.4
2016-Dec-03 10:41 055 0 9.4
2016-Dec-03 10:36 073 1 9.4
2016-Dec-03 10:21 360 1 8.9
2016-Dec-03 09:36 017 1 8.9
2016-Dec-03 09:26 053 1 8.9
2016-Dec-03 09:16 060 0 8.9
2016-Dec-03 09:11 060 1 8.9
2016-Dec-03 09:06 042 0 8.9
2016-Dec-03 09:01 036 1 8.9
2016-Dec-03 08:56 355 1 8.9
2016-Dec-03 08:51 013 1 8.3
2016-Dec-03 08:46 059 1 8.3
2016-Dec-03 08:41 029 0 8.3
2016-Dec-03 08:31 047 1 8.3
2016-Dec-03 08:26 024 1 8.3
2016-Dec-03 08:11 030 1 8.3
2016-Dec-03 08:06 036 1 8.3
2016-Dec-03 08:01 026 0 8.3
2016-Dec-03 07:56 025 1 8.3
2016-Dec-03 07:51 018 1 8.3
2016-Dec-03 07:46 024 0 8.3
2016-Dec-03 07:36 032 0 8.3
2016-Dec-03 07:16 342 1 8.3
2016-Dec-03 07:11 022 1 8.3
2016-Dec-03 06:56 350 1 7.8
2016-Dec-03 06:51 029 1 7.8
2016-Dec-03 06:46 330 1 7.8
2016-Dec-03 06:41 355 2 7.8
2016-Dec-03 06:21 319 2 7.8
2016-Dec-03 06:11 351 2 7.8
2016-Dec-03 06:06 332 2 7.8
2016-Dec-03 06:01 010 2 7.8
2016-Dec-03 05:56 346 1 7.8
2016-Dec-03 05:51 351 0 7.2
2016-Dec-03 05:46 015 0 7.2
2016-Dec-03 05:26 038 1 7.2
2016-Dec-03 05:16 021 3 7.2
2016-Dec-03 05:06 028 2 7.2
2016-Dec-03 05:01 350 2 7.2
2016-Dec-03 04:31 336 3 6.7
2016-Dec-03 04:26 336 2 6.7
2016-Dec-03 04:21 330 2 6.7
2016-Dec-03 04:16 355 2 6.7
2016-Dec-03 04:11 355 2 6.7
2016-Dec-03 03:51 360 2 6.7
2016-Dec-03 03:46 005 2 6.7
2016-Dec-03 03:36 013 0 6.7
2016-Dec-03 03:11 336 2 6.7
2016-Dec-03 03:06 346 3 6.7
2016-Dec-03 03:01 328 3 6.7
2016-Dec-03 02:56 321 3 6.7
2016-Dec-03 02:51 326 2 6.7
2016-Dec-03 02:46 319 2 6.7
2016-Dec-03 02:41 329 2 6.7
2016-Dec-03 02:36 323 3 6.7
2016-Dec-03 02:16 331 1 6.1
2016-Dec-03 02:01 330 1 6.1
2016-Dec-03 01:56 327 0 6.1
2016-Dec-03 01:51 324 1 6.1
2016-Dec-03 01:46 324 1 6.1
2016-Dec-03 01:31 341 1 6.1
2016-Dec-03 01:26 323 2 6.1
2016-Dec-03 01:16 320 2 5.6
2016-Dec-03 00:56 327 2 6.1
2016-Dec-03 00:51 313 2 6.1
2016-Dec-03 00:46 318 3 6.1
2016-Dec-03 00:41 327 3 6.1
2016-Dec-03 00:36 325 3 6.1
2016-Dec-03 00:26 313 3 6.1
2016-Dec-03 00:21 348 3 6.1
2016-Dec-03 00:16 328 4 6.1
2016-Dec-03 00:11 313 4 6.1
2016-Dec-02 23:36 320 3 6.1
2016-Dec-02 23:26 324 2 6.1
2016-Dec-02 23:16 329 1 6.1
2016-Dec-02 23:11 330 1 6.1
2016-Dec-02 23:06 328 1 6.1
2016-Dec-02 22:51 325 0 6.1
2016-Dec-02 22:46 325 0 6.7
2016-Dec-02 22:36 321 0 6.1
2016-Dec-02 22:26 329 0 6.1
2016-Dec-02 22:21 329 0 6.1
2016-Dec-02 22:11 314 0 6.1
2016-Dec-02 22:01 305 6.1
2016-Dec-02 21:51 293 6.7
2016-Dec-02 21:31 213 7.2
2016-Dec-02 21:26 213 7.2
2016-Dec-02 21:06 260 0 7.2
2016-Dec-02 21:01 221 0 7.2
2016-Dec-02 20:31 232 0 6.7
2016-Dec-02 20:26 226 6.7
2016-Dec-02 20:16 019 6.7
2016-Dec-02 20:06 071 0 7.2
2016-Dec-02 20:01 113 1 7.2
2016-Dec-02 19:51 236 4 7.8
2016-Dec-02 19:46 199 6 7.8
2016-Dec-02 19:41 246 6 7.8
2016-Dec-02 19:31 237 7 7.8
2016-Dec-02 19:26 252 6 7.8
2016-Dec-02 19:21 212 6 7.8
2016-Dec-02 19:11 204 6 7.8
2016-Dec-02 19:06 241 6 7.8
2016-Dec-02 19:01 237 6 7.8
2016-Dec-02 18:56 242 5 7.8
2016-Dec-02 18:51 263 5 7.8
2016-Dec-02 18:46 236 6 7.8
2016-Dec-02 18:41 263 6 7.2
2016-Dec-02 18:26 237 6 7.8
2016-Dec-02 18:11 253 5 7.2
2016-Dec-02 18:01 222 5 7.2
2016-Dec-02 17:36 223 0 7.8
2016-Dec-02 17:31 330 0 7.8
2016-Dec-02 17:16 232 0 7.8
2016-Dec-02 17:11 217 0 7.8
2016-Dec-02 17:06 146 1 7.8
2016-Dec-02 17:01 192 1 7.8
2016-Dec-02 16:56 219 1 7.8
2016-Dec-02 16:51 205 1 7.8
2016-Dec-02 16:46 182 2 7.8
2016-Dec-02 16:41 183 2 7.8
2016-Dec-02 16:31 168 2 7.8
2016-Dec-02 16:26 176 3 7.8
2016-Dec-02 16:21 200 4 8.3
2016-Dec-02 16:16 183 4 8.3
2016-Dec-02 16:11 207 4 8.3
2016-Dec-02 16:06 169 5 8.3
2016-Dec-02 15:51 155 6 8.9
2016-Dec-02 15:46 182 6 8.9
2016-Dec-02 15:41 194 7 8.9
2016-Dec-02 15:36 205 6 8.9
2016-Dec-02 15:16 200 6 8.9
2016-Dec-02 15:01 212 10 9.4
2016-Dec-02 14:41 199 9 9.4
2016-Dec-02 14:36 232 7 9.4
2016-Dec-02 14:26 188 6 10.0
2016-Dec-02 14:16 230 6 10.0
2016-Dec-02 13:56 225 7 10.6
2016-Dec-02 13:46 209 7 11.1
2016-Dec-02 13:31 188 11 10.6
2016-Dec-02 13:21 192 8 11.1
2016-Dec-02 13:16 199 6 11.1
2016-Dec-02 13:11 172 3 11.1
2016-Dec-02 12:41 238 9 10.6
2016-Dec-02 12:36 198 8 10.6
2016-Dec-02 12:21 190 7 10.6
2016-Dec-02 12:11 190 8 10.6
2016-Dec-02 11:46 192 10 10.0
2016-Dec-02 11:26 229 7 9.4
2016-Dec-02 11:16 188 6 9.4
2016-Dec-02 11:06 218 9 9.4
2016-Dec-02 11:01 219 8 9.4
2016-Dec-02 10:56 198 7 9.4
2016-Dec-02 10:36 141 8 8.3
2016-Dec-02 10:31 234 8 8.3
2016-Dec-02 10:26 223 6 7.8
2016-Dec-02 10:21 271 6 7.8
2016-Dec-02 10:16 200 6 7.8
2016-Dec-02 10:06 349 6 7.8
2016-Dec-02 10:01 237 6 7.8
2016-Dec-02 09:56 180 6 8.9
2016-Dec-02 09:46 200 5 8.9
2016-Dec-02 09:41 105 2 8.9
2016-Dec-02 09:36 317 3 8.3
2016-Dec-02 09:26 245 5 7.2
2016-Dec-02 09:21 202 6 7.8
2016-Dec-02 09:16 250 6 7.8
2016-Dec-02 09:06 159 6 7.8
2016-Dec-02 09:01 207 6 7.8
2016-Dec-02 08:56 198 6 7.2
2016-Dec-02 08:36 225 7 7.8
2016-Dec-02 08:31 237 6 7.8
2016-Dec-02 08:26 245 6 7.2
2016-Dec-02 08:16 195 7 7.2
2016-Dec-02 08:06 217 7 7.2
2016-Dec-02 08:01 201 6 7.2
2016-Dec-02 07:46 146 2 6.7
2016-Dec-02 07:36 231 2 6.7
2016-Dec-02 07:31 209 3 7.2
2016-Dec-02 07:26 170 5 7.2
2016-Dec-02 07:11 194 6 7.2
2016-Dec-02 06:56 236 4 7.2
2016-Dec-02 06:51 200 3 6.7
2016-Dec-02 06:41 123 1 5.6
2016-Dec-02 06:31 182 2 6.1
2016-Dec-02 06:21 187 1 5.6
2016-Dec-02 06:16 246 0 5.6
2016-Dec-02 06:11 346 0 5.0
2016-Dec-02 05:56 111 0 4.4
2016-Dec-02 05:51 091 0 4.4
2016-Dec-02 05:46 090 0 4.4
2016-Dec-02 05:36 041 1 5.0
2016-Dec-02 05:31 355 1 4.4
2016-Dec-02 05:21 044 1 4.4
2016-Dec-02 05:16 132 1 4.4
2016-Dec-02 05:11 188 0 4.4
2016-Dec-02 05:01 063 0 4.4
2016-Dec-02 04:56 099 0 4.4
2016-Dec-02 04:46 128 0 3.9
2016-Dec-02 04:41 061 0 3.9
2016-Dec-02 04:36 064 3.9
2016-Dec-02 04:31 071 3.9
2016-Dec-02 03:46 121 0 4.4
2016-Dec-02 03:41 132 1 5.0
2016-Dec-02 03:36 183 1 4.4
2016-Dec-02 03:21 348 0 4.4
2016-Dec-02 03:11 090 4.4
2016-Dec-02 03:06 090 4.4
2016-Dec-02 03:01 090 4.4
2016-Dec-02 02:56 090 4.4
2016-Dec-02 02:51 090 4.4
2016-Dec-02 02:41 090 4.4
2016-Dec-02 02:36 088 4.4
2016-Dec-02 02:31 084 0 4.4
2016-Dec-02 02:16 106 0 4.4
2016-Dec-02 02:11 104 1 4.4
2016-Dec-02 02:06 109 2 4.4
2016-Dec-02 02:01 080 1 5.0
2016-Dec-02 01:56 105 1 5.0
2016-Dec-02 01:51 057 1 5.0
2016-Dec-02 01:36 067 1 5.0
2016-Dec-02 01:21 095 4.4
2016-Dec-02 01:16 095 4.4
2016-Dec-02 01:11 101 4.4
2016-Dec-02 01:06 101 4.4
2016-Dec-02 01:01 102 4.4
2016-Dec-02 00:21 080 0 5.0
2016-Dec-02 00:06 106 0 5.0
2016-Dec-01 23:56 113 5.0
2016-Dec-01 23:51 128 5.0
2016-Dec-01 23:46 108 5.0
2016-Dec-01 23:41 119 1 5.6
2016-Dec-01 23:26 164 0 5.6
2016-Dec-01 23:21 186 0 5.0
2016-Dec-01 23:11 130 0 5.0
2016-Dec-01 23:06 143 5.0
2016-Dec-01 22:56 163 5.0
2016-Dec-01 22:46 150 5.0
2016-Dec-01 22:36 151 5.0
2016-Dec-01 22:26 150 5.0
2016-Dec-01 22:21 139 5.0
2016-Dec-01 22:06 139 5.0
2016-Dec-01 22:01 141 5.0
2016-Dec-01 21:56 141 0 5.6
2016-Dec-01 21:51 144 0 5.6
2016-Dec-01 21:36 159 5.6
2016-Dec-01 21:26 191 5.6
2016-Dec-01 21:21 191 5.6
2016-Dec-01 21:11 161 5.0
2016-Dec-01 21:06 161 5.0
2016-Dec-01 21:01 158 5.0
2016-Dec-01 20:56 157 5.0
2016-Dec-01 20:51 153 5.0
2016-Dec-01 20:46 153 5.0
2016-Dec-01 20:41 154 5.0
2016-Dec-01 20:36 153 5.0
2016-Dec-01 20:31 154 5.0
2016-Dec-01 20:21 111 5.0
2016-Dec-01 20:16 131 5.0
2016-Dec-01 20:11 131 5.0
2016-Dec-01 20:01 131 5.6
2016-Dec-01 19:56 131 5.6
2016-Dec-01 19:51 131 5.6
2016-Dec-01 19:36 131 5.6
2016-Dec-01 19:31 130 5.6
2016-Dec-01 19:26 130 5.6
2016-Dec-01 19:21 130 5.6
2016-Dec-01 19:16 130 5.6
2016-Dec-01 19:11 130 5.6
2016-Dec-01 18:41 129 5.0
2016-Dec-01 18:31 129 4.4
2016-Dec-01 18:26 129 4.4
2016-Dec-01 18:21 130 4.4
2016-Dec-01 18:16 130 4.4
2016-Dec-01 18:06 129 4.4
2016-Dec-01 17:56 129 4.4
2016-Dec-01 17:46 067 0 4.4
2016-Dec-01 17:41 094 0 4.4
2016-Dec-01 17:36 053 1 4.4
2016-Dec-01 17:26 071 0 4.4
2016-Dec-01 17:21 069 0 4.4
2016-Dec-01 17:16 063 0 5.0
2016-Dec-01 17:06 095 0 5.6
2016-Dec-01 16:46 177 6 5.6
2016-Dec-01 16:41 211 6 5.6
2016-Dec-01 16:31 229 2 5.6
2016-Dec-01 16:26 250 1 5.6
2016-Dec-01 16:21 229 1 5.6
2016-Dec-01 16:06 264 0 5.6
2016-Dec-01 15:56 280 0 5.6
2016-Dec-01 15:51 273 0 5.6
2016-Dec-01 15:46 270 5.6
2016-Dec-01 15:41 269 6.1
2016-Dec-01 15:36 267 6.1
2016-Dec-01 15:26 254 6.1
2016-Dec-01 15:21 254 6.1
2016-Dec-01 15:16 253 6.7
2016-Dec-01 15:06 253 6.7
2016-Dec-01 15:01 254 6.7
2016-Dec-01 14:51 254 6.7
2016-Dec-01 14:46 254 0 6.7
2016-Dec-01 14:31 237 6.7
2016-Dec-01 14:26 204 0 6.7
2016-Dec-01 14:11 244 6.7
2016-Dec-01 14:06 213 6.7
2016-Dec-01 14:01 160 6.7
2016-Dec-01 13:56 160 6.7
2016-Dec-01 13:46 179 2 6.1
2016-Dec-01 13:41 196 1 6.1
2016-Dec-01 13:36 167 1 6.7
2016-Dec-01 13:26 182 1 6.7
2016-Dec-01 12:51 171 2 6.7
2016-Dec-01 12:41 121 0 6.7
2016-Dec-01 12:26 180 0 6.7
2016-Dec-01 12:11 152 7.2
2016-Dec-01 12:06 152 7.2
2016-Dec-01 12:01 152 7.2
2016-Dec-01 11:56 152 6.7
2016-Dec-01 11:51 142 6.7
2016-Dec-01 11:46 122 0 6.1
2016-Dec-01 11:41 123 0 6.1
2016-Dec-01 11:31 122 6.1
2016-Dec-01 11:26 122 5.6
2016-Dec-01 11:21 122 5.6
2016-Dec-01 11:16 118 5.6